When you browse on this site, cookies collect data to enhance your experience and personalize the content and advertising you see.
Visit our Privacy Policy to learn more. By continuing to use the site, you agree to this use of cookies and data.
  • In Hungary
  • List of Countries
  • For 7 days
  • Water Temperature
  • Weather Map
  • News
  • Weather Widgets
  • user-avatar
    Login

    Hourly Weather Novy Jicin

    Today, 24 February, Monday

    Time Temperature Precipitation Wind Pressure Humidity
    00:00 +6°C° 0.5 mm 8 mps 726 mmHg 73%
    01:00 +4°C° 0 mm 7 mps 727 mmHg 72%
    02:00 +3°C° 0 mm 7 mps 728 mmHg 72%
    03:00 +2°C° 0 mm 7 mps 730 mmHg 72%
    04:00 0°C° 0 mm 7 mps 731 mmHg 72%
    05:00 +1°C° 0 mm 6 mps 732 mmHg 74%
    06:00 0°C° 0 mm 5 mps 733 mmHg 75%
    07:00 0°C° 0 mm 4 mps 734 mmHg 75%
    08:00 +1°C° 0 mm 4 mps 735 mmHg 73%
    09:00 +1°C° 0 mm 4 mps 735 mmHg 70%
    10:00 +3°C° 0 mm 3 mps 736 mmHg 67%
    11:00 +4°C° 0 mm 4 mps 736 mmHg 67%
    12:00 +4°C° 0 mm 4 mps 735 mmHg 66%
    13:00 +5°C° 0 mm 4 mps 735 mmHg 65%
    14:00 +5°C° 0 mm 4 mps 735 mmHg 65%
    15:00 +4°C° 0 mm 3 mps 735 mmHg 66%
    16:00 +4°C° 0 mm 3 mps 734 mmHg 67%
    17:00 +4°C° 0 mm 3 mps 734 mmHg 69%
    18:00 +4°C° 0 mm 3 mps 733 mmHg 71%
    19:00 +3°C° 0 mm 3 mps 733 mmHg 74%
    20:00 +3°C° 0.1 mm 3 mps 732 mmHg 75%
    21:00 +3°C° 0.1 mm 4 mps 731 mmHg 77%
    22:00 +3°C° 0.1 mm 4 mps 730 mmHg 79%
    23:00 +2°C° 0 mm 5 mps 729 mmHg 78%

    Tomorrow, 25 February, Tuesday

    Time Temperature Precipitation Wind Pressure Humidity
    00:00 +3°C° 0 mm 5 mps 728 mmHg 78%
    01:00 +3°C° 0 mm 5 mps 728 mmHg 78%
    02:00 +3°C° 0 mm 5 mps 727 mmHg 80%
    03:00 +3°C° 0 mm 5 mps 726 mmHg 81%
    04:00 +3°C° 0 mm 5 mps 726 mmHg 83%
    05:00 +5°C° 0.1 mm 5 mps 726 mmHg 84%
    06:00 +5°C° 0.1 mm 5 mps 725 mmHg 85%
    07:00 +5°C° 0.1 mm 4 mps 725 mmHg 86%
    08:00 +5°C° 0.2 mm 4 mps 725 mmHg 86%
    09:00 +5°C° 0.2 mm 4 mps 725 mmHg 86%
    10:00 +6°C° 0.2 mm 4 mps 725 mmHg 86%
    11:00 +6°C° 0.3 mm 4 mps 724 mmHg 86%
    12:00 +6°C° 0.3 mm 4 mps 724 mmHg 85%
    13:00 +7°C° 0.3 mm 4 mps 724 mmHg 85%
    14:00 +7°C° 0.1 mm 4 mps 723 mmHg 83%
    15:00 +7°C° 0.1 mm 4 mps 722 mmHg 81%
    16:00 +8°C° 0.1 mm 4 mps 722 mmHg 79%
    17:00 +8°C° 0.1 mm 4 mps 722 mmHg 80%
    18:00 +7°C° 0.1 mm 4 mps 721 mmHg 81%
    19:00 +7°C° 0.1 mm 4 mps 721 mmHg 82%
    20:00 +7°C° 0.3 mm 4 mps 721 mmHg 84%
    21:00 +6°C° 0.3 mm 4 mps 721 mmHg 86%
    22:00 +7°C° 0.3 mm 3 mps 721 mmHg 88%
    23:00 +7°C° 0.5 mm 3 mps 721 mmHg 87%

    Day after tomorrow, 26 February, Wednesday

    Time Temperature Precipitation Wind Pressure Humidity
    00:00 +5°C° 0.5 mm 3 mps 720 mmHg 86%
    01:00 +4°C° 0.5 mm 3 mps 720 mmHg 86%
    02:00 +4°C° 0 mm 3 mps 720 mmHg 85%
    03:00 +4°C° 0 mm 3 mps 719 mmHg 85%
    04:00 +3°C° 0 mm 3 mps 718 mmHg 84%
    05:00 +3°C° 0 mm 3 mps 718 mmHg 85%
    06:00 +3°C° 0 mm 3 mps 718 mmHg 86%
    07:00 +3°C° 0 mm 3 mps 717 mmHg 87%
    08:00 +3°C° 0 mm 4 mps 717 mmHg 81%
    09:00 +3°C° 0 mm 5 mps 717 mmHg 75%
    10:00 +5°C° 0 mm 5 mps 717 mmHg 70%
    11:00 +4°C° 0.1 mm 6 mps 717 mmHg 68%
    12:00 +4°C° 0.1 mm 7 mps 717 mmHg 67%
    13:00 +4°C° 0.1 mm 7 mps 717 mmHg 66%
    14:00 +3°C° 0 mm 6 mps 717 mmHg 62%
    15:00 +3°C° 0 mm 5 mps 717 mmHg 59%
    16:00 +4°C° 0 mm 4 mps 717 mmHg 56%
    17:00 +3°C° 0 mm 3 mps 718 mmHg 60%
    18:00 +2°C° 0 mm 3 mps 718 mmHg 64%
    19:00 +1°C° 0 mm 3 mps 719 mmHg 68%
    20:00 +1°C° 0 mm 3 mps 719 mmHg 71%
    21:00 -1°C° 0 mm 4 mps 719 mmHg 73%
    22:00 -1°C° 0 mm 4 mps 719 mmHg 76%
    23:00 -1°C° 0 mm 4 mps 720 mmHg 77%

    27 February, Thursday

    Time Temperature Precipitation Wind Pressure Humidity
    00:00 -1°C° 0 mm 4 mps 720 mmHg 78%
    01:00 -1°C° 0 mm 3 mps 721 mmHg 80%
    02:00 -1°C° 0 mm 4 mps 721 mmHg 81%
    03:00 -1°C° 0 mm 4 mps 721 mmHg 83%
    04:00 -1°C° 0 mm 4 mps 721 mmHg 85%
    05:00 -1°C° 0.1 mm 4 mps 722 mmHg 85%
    06:00 -1°C° 0.1 mm 4 mps 722 mmHg 86%
    07:00 -2°C° 0.1 mm 4 mps 723 mmHg 86%
    08:00 -1°C° 0.2 mm 4 mps 723 mmHg 84%
    09:00 -1°C° 0.2 mm 5 mps 724 mmHg 81%
    10:00 0°C° 0.2 mm 5 mps 724 mmHg 78%
    11:00 +1°C° 0.1 mm 5 mps 724 mmHg 72%
    12:00 +1°C° 0.1 mm 6 mps 724 mmHg 66%
    13:00 +2°C° 0.1 mm 6 mps 724 mmHg 60%
    14:00 +2°C° 0 mm 5 mps 724 mmHg 59%
    15:00 +3°C° 0 mm 4 mps 723 mmHg 59%
    16:00 +3°C° 0 mm 3 mps 723 mmHg 58%
    17:00 +2°C° 0 mm 3 mps 723 mmHg 64%
    18:00 +2°C° 0 mm 2 mps 723 mmHg 71%
    19:00 +1°C° 0 mm 2 mps 722 mmHg 77%
    20:00 +2°C° 0 mm 1 mps 722 mmHg 76%
    21:00 +2°C° 0 mm 1 mps 721 mmHg 76%
    22:00 +2°C° 0 mm 1 mps 721 mmHg 76%
    23:00 +2°C° 0.1 mm 1 mps 720 mmHg 80%

    28 February, Friday

    Time Temperature Precipitation Wind Pressure Humidity
    00:00 +1°C° 0.1 mm 1 mps 720 mmHg 85%
    01:00 +1°C° 0.1 mm 1 mps 720 mmHg 89%
    02:00 +1°C° 0.6 mm 1 mps 720 mmHg 90%
    03:00 -1°C° 0.6 mm 2 mps 720 mmHg 91%
    04:00 -1°C° 0.6 mm 2 mps 721 mmHg 92%
    05:00 -1°C° 0.2 mm 2 mps 722 mmHg 91%
    06:00 -2°C° 0.2 mm 2 mps 723 mmHg 90%
    07:00 -2°C° 0.2 mm 2 mps 724 mmHg 90%
    08:00 -1°C° 0 mm 2 mps 725 mmHg 84%
    09:00 +1°C° 0 mm 2 mps 726 mmHg 79%
    10:00 +1°C° 0 mm 3 mps 727 mmHg 73%
    11:00 +1°C° 0.5 mm 3 mps 727 mmHg 75%
    12:00 0°C° 0.5 mm 4 mps 728 mmHg 77%
    13:00 0°C° 0.5 mm 4 mps 729 mmHg 78%
    14:00 +1°C° 0.3 mm 5 mps 729 mmHg 75%
    15:00 +1°C° 0.3 mm 5 mps 729 mmHg 72%
    16:00 +1°C° 0.3 mm 5 mps 730 mmHg 69%
    17:00 0°C° 0.1 mm 4 mps 730 mmHg 73%
    18:00 0°C° 0.1 mm 3 mps 731 mmHg 77%
    19:00 -1°C° 0.1 mm 2 mps 731 mmHg 81%
    20:00 -1°C° 0 mm 2 mps 731 mmHg 82%
    21:00 0°C° 0 mm 1 mps 732 mmHg 84%
    22:00 0°C° 0 mm 1 mps 732 mmHg 85%
    23:00 0°C° 0 mm 1 mps 732 mmHg 86%

    29 February, Saturday

    Time Temperature Precipitation Wind Pressure Humidity
    00:00 0°C° 0 mm 1 mps 732 mmHg 87%
    01:00 0°C° 0 mm 1 mps 731 mmHg 87%
    02:00 0°C° 0 mm 1 mps 731 mmHg 88%
    03:00 0°C° 0 mm 1 mps 731 mmHg 88%
    04:00 -2°C° 0 mm 2 mps 730 mmHg 89%
    05:00 -2°C° 0 mm 2 mps 730 mmHg 88%
    06:00 -2°C° 0 mm 2 mps 729 mmHg 87%
    07:00 -2°C° 0 mm 2 mps 729 mmHg 87%
    08:00 -1°C° 0 mm 3 mps 728 mmHg 80%
    09:00 0°C° 0 mm 4 mps 728 mmHg 72%
    10:00 +1°C° 0 mm 5 mps 728 mmHg 65%
    11:00 +1°C° 0 mm 6 mps 727 mmHg 69%
    12:00 +1°C° 0 mm 6 mps 726 mmHg 73%
    13:00 0°C° 0 mm 7 mps 725 mmHg 77%
    14:00 +1°C° 0 mm 6 mps 725 mmHg 79%
    15:00 +1°C° 0 mm 6 mps 724 mmHg 82%
    16:00 +1°C° 0 mm 5 mps 723 mmHg 84%
    17:00 +1°C° 0.1 mm 5 mps 723 mmHg 85%
    18:00 +1°C° 0.1 mm 5 mps 723 mmHg 85%
    19:00 +1°C° 0.1 mm 4 mps 722 mmHg 86%
    20:00 +1°C° 0.6 mm 4 mps 722 mmHg 88%
    21:00 +1°C° 0.6 mm 4 mps 722 mmHg 90%
    22:00 +3°C° 0.6 mm 4 mps 723 mmHg 92%
    23:00 +1°C° 0.8 mm 4 mps 723 mmHg 93%
    Show more